GFSSW_sfc_rhum_336.txt.gz
RH
86 85 85 85 85 86 87 85 84 87 88 87 86 86 86 88 78 22 16 21 26 54 54 20 19 18 19 35 39 43 53 47 37 36 36 24 24 24 24 22 24 20 26 29 32
84 84 86 86 86 89 90 88 85 86 88 87 86 85 86 88 30 14 33 48 46 51 18 17 18 19 24 32 37 44 53 41 28 28 28 24 23 23 25 21 22 22 27 31 35
78 78 80 84 86 88 89 89 87 88 87 86 87 87 89 77 24 13 50 42 48 41 18 16 15 18 26 31 31 35 44 32 27 28 25 24 26 24 23 27 19 23 29 33 38
79 81 82 84 87 87 88 89 85 84 85 87 88 88 88 30 22 13 50 49 48 25 16 16 16 26 31 26 26 30 28 23 34 29 30 27 22 26 24 25 17 16 24 31 37
81 82 83 85 82 82 86 86 84 82 85 88 87 87 38 19 15 13 45 37 15 14 14 16 17 27 22 18 22 21 23 23 22 25 23 21 23 22 21 19 19 17 22 29 31
84 85 84 84 84 84 85 86 82 84 86 88 86 89 34 20 10 10 12 12 11 13 14 14 15 16 18 18 20 19 21 16 18 18 19 21 19 23 18 17 18 20 23 24 25
85 85 84 84 85 86 85 86 86 84 85 85 85 45 19 14 10 11 12 14 14 13 17 14 14 18 18 21 21 18 20 18 18 18 22 26 27 24 19 16 16 22 24 22 23
85 85 86 85 86 87 87 87 86 84 86 86 82 31 19 12 11 11 11 12 13 14 17 18 16 19 22 21 18 19 19 30 22 20 24 25 33 22 16 17 17 16 17 21 20
88 88 87 85 88 87 86 85 83 84 81 75 40 26 16 24 11 10 13 12 14 14 21 11 19 24 23 24 27 22 26 24 25 18 23 24 28 18 16 16 18 17 15 17 20
90 89 88 86 87 86 85 81 70 69 52 26 22 22 14 11 13 12 12 14 15 17 16 22 22 26 24 22 29 21 18 18 20 19 20 23 24 18 14 15 17 16 15 14 17
92 90 89 86 86 86 74 39 28 32 25 20 17 14 11 10 12 12 11 13 14 16 20 23 23 27 23 20 16 15 14 14 15 19 25 22 19 16 15 17 20 19 16 14 14
93 91 89 85 86 86 66 32 42 45 45 22 18 14 13 13 13 11 11 16 18 20 16 23 25 20 16 18 20 19 18 17 18 16 21 19 18 15 14 15 17 18 17 14 13
94 92 89 85 85 62 37 40 33 34 44 21 17 16 14 13 13 11 13 15 18 18 16 20 19 18 20 22 20 20 21 19 19 20 17 20 25 22 15 14 15 15 16 14 13
94 92 88 86 72 38 38 34 32 33 41 21 24 20 16 16 19 11 11 16 15 17 16 17 19 20 25 20 20 27 19 21 21 25 28 21 25 22 15 17 16 17 16 16 14
96 93 85 85 60 40 41 36 34 37 31 19 21 14 15 16 18 18 15 19 20 15 24 27 25 26 24 20 21 29 27 24 26 27 29 25 27 16 16 18 16 15 15 16 16
92 95 84 63 57 37 35 39 38 38 28 21 18 19 18 19 15 20 18 18 21 20 20 19 21 21 22 19 22 25 25 27 31 35 43 26 23 21 16 14 13 12 15 14 14
90 94 86 59 56 44 38 44 41 32 16 21 20 18 18 20 18 18 19 20 21 27 25 18 20 20 23 26 28 29 31 44 56 52 42 20 24 20 14 13 12 11 14 15 15
93 93 88 65 52 48 43 47 52 17 16 18 19 19 20 17 19 18 21 23 18 18 21 25 27 22 20 22 29 28 28 38 47 47 39 29 34 23 15 10 11 11 14 16 17
96 82 85 64 53 52 53 54 26 21 15 19 19 22 22 18 22 19 20 20 16 16 25 19 25 20 20 20 24 28 34 33 33 26 35 32 26 22 16 14 13 14 17 19 18
84 87 82 57 50 56 57 50 26 18 18 20 22 20 21 21 23 22 22 18 20 16 15 19 25 23 22 23 22 32 27 32 31 48 60 29 24 27 22 17 16 16 20 23 21
86 91 67 58 54 72 60 40 32 23 20 20 22 21 18 23 22 20 21 21 20 20 17 23 21 32 25 27 25 30 29 30 32 38 48 53 34 21 21 17 16 17 20 24 25
91 93 65 63 97 89 75 44 38 25 23 25 29 26 26 20 23 25 22 24 21 22 26 19 24 26 27 20 20 22 22 23 43 40 38 48 45 19 21 18 15 15 18 23 26
88 92 69 85 96 92 65 56 50 41 26 24 27 26 21 24 27 25 23 35 32 26 27 23 27 31 34 35 29 27 23 23 22 32 51 60 38 18 21 20 16 15 18 21 25
94 98 96 98 93 84 75 66 54 41 40 25 25 24 24 25 24 27 28 40 38 32 50 40 29 28 29 33 30 31 27 23 24 38 31 32 30 26 26 25 22 18 17 18 24
92 84 84 96 94 89 70 62 65 56 37 29 29 29 28 30 25 24 24 35 37 45 36 33 34 27 21 18 22 24 26 25 26 22 28 24 21 17 15 25 21 19 19 17 20
90 86 76 96 79 87 86 76 69 52 43 41 40 33 29 32 27 27 23 24 26 35 34 31 35 28 25 20 20 22 21 23 24 22 21 20 19 14 13 14 14 17 18 18 17
62 71 91 86 81 89 81 74 73 58 51 43 38 37 39 33 24 20 18 18 20 25 36 33 38 34 33 25 25 28 21 20 21 21 22 25 18 15 17 15 15 15 14 19 15

GFSSW_sfc_rhum_339.txt.gz
RH
84 83 83 84 84 85 86 85 84 86 87 86 84 86 87 90 84 43 26 29 35 54 54 25 25 25 28 38 46 46 58 60 48 40 36 26 29 26 24 25 25 28 33 35 42
82 81 80 81 83 88 89 86 84 84 87 89 85 84 84 89 60 30 38 53 57 52 23 25 25 20 27 35 42 52 61 52 36 36 34 27 26 26 28 28 30 35 43 42 41
80 80 81 82 84 87 88 88 84 84 85 87 88 89 88 89 40 20 45 47 53 42 25 25 22 22 30 31 37 44 51 37 34 35 31 27 26 24 26 31 25 34 43 43 47
82 83 84 85 85 84 85 86 81 80 80 84 88 90 90 63 32 19 44 42 52 30 24 21 22 33 30 30 26 37 33 26 38 34 30 33 28 30 25 24 22 28 38 44 48
86 88 87 85 81 79 81 83 79 79 83 85 86 88 54 35 26 16 47 36 20 19 20 19 22 26 29 22 24 29 30 24 27 28 26 22 28 28 25 23 22 28 35 43 45
88 89 88 86 84 84 84 85 80 82 85 84 84 89 60 35 15 15 16 16 16 17 18 17 22 20 23 22 23 24 23 22 24 24 23 23 24 26 20 19 24 31 37 42 44
88 88 88 87 86 86 86 86 85 86 86 83 86 56 41 23 14 15 14 16 17 20 23 19 18 22 25 23 23 21 22 20 21 22 24 25 27 27 21 21 25 26 32 36 37
90 89 89 89 86 86 86 85 85 85 85 86 84 57 38 16 17 14 15 18 15 16 20 20 20 27 27 25 21 26 27 33 26 23 28 22 29 26 24 19 20 30 32 28 29
92 91 90 89 87 85 85 86 85 84 84 80 60 52 30 26 16 14 15 18 17 18 20 12 24 29 24 30 37 34 34 31 33 23 29 28 26 23 24 20 20 22 26 28 28
94 93 92 90 89 85 86 84 78 79 58 38 31 31 22 17 18 16 16 18 21 20 21 28 28 32 34 33 36 25 25 18 29 22 24 30 30 24 21 22 22 23 23 23 26
94 94 94 91 90 86 85 74 47 43 44 34 28 21 17 16 16 18 16 19 22 24 27 27 29 32 30 25 21 22 23 22 24 22 23 25 25 21 20 21 23 22 21 22 23
94 94 94 92 89 85 85 53 57 56 68 40 31 24 19 17 19 16 15 21 24 26 27 25 31 23 21 24 26 25 27 25 24 22 21 23 21 19 19 21 18 19 21 20 20
93 95 94 91 87 68 52 49 43 46 72 43 31 26 20 16 19 16 16 19 23 27 24 26 22 19 22 26 25 28 29 25 23 23 24 25 27 26 22 19 19 20 20 20 18
89 97 94 90 74 66 54 47 47 48 71 35 31 25 19 19 24 15 16 19 21 20 21 22 20 21 26 25 24 29 27 25 27 30 30 25 33 23 23 19 20 22 21 20 18
90 92 95 88 86 70 48 49 50 50 36 28 27 18 20 21 22 21 19 19 26 21 22 22 26 29 29 24 24 27 30 30 32 34 47 36 32 25 22 21 20 20 19 18 20
94 90 94 81 85 65 56 50 55 41 33 30 27 26 26 27 24 26 21 20 24 26 23 22 24 24 23 25 25 28 29 34 38 42 52 37 29 22 22 18 21 20 19 17 18
93 93 93 72 87 68 62 62 52 51 23 28 28 25 27 28 26 24 25 28 26 31 30 26 25 25 23 29 31 30 35 45 58 55 39 30 28 24 18 17 16 15 16 17 18
92 95 92 83 80 78 72 68 71 33 24 25 25 25 28 25 25 24 28 30 26 28 30 31 30 25 23 24 30 32 32 48 45 60 43 31 31 24 18 16 15 14 15 18 19
95 94 78 86 80 80 81 92 54 38 24 25 26 29 30 25 24 27 28 30 25 24 27 28 29 25 23 23 25 32 33 30 36 41 43 36 29 22 18 16 17 17 19 20 20
96 86 82 80 72 68 90 84 49 26 22 25 27 26 30 28 26 29 28 25 26 23 22 25 30 28 26 24 26 32 32 31 38 36 55 45 35 25 22 16 18 19 18 21 22
99 92 84 68 69 90 85 75 42 30 31 30 31 32 32 29 28 29 27 24 25 27 23 25 26 35 29 29 29 32 34 36 34 50 50 60 43 27 23 20 16 18 19 22 23
97 96 84 68 98 96 87 56 51 35 33 34 31 32 33 34 31 29 27 27 25 23 25 23 29 36 29 27 26 30 30 32 48 29 49 62 41 29 24 22 18 18 20 26 25
98 94 90 88 96 84 70 64 57 60 59 34 34 33 29 33 34 33 28 35 32 27 24 25 32 36 30 34 33 28 28 26 32 46 46 59 35 22 24 22 20 18 20 25 28
97 99 95 99 97 95 82 71 67 56 60 54 42 39 36 36 34 33 35 41 34 34 51 38 35 32 36 33 37 35 31 30 26 42 29 40 38 27 28 24 22 19 19 24 29
98 94 89 95 97 95 90 80 78 72 53 48 51 54 44 45 38 36 32 42 40 45 38 31 41 37 32 31 30 28 28 32 30 23 28 22 20 19 16 26 21 22 20 22 28
97 94 95 97 89 80 91 81 75 71 64 65 58 50 42 40 37 40 34 35 32 47 41 39 41 36 31 27 28 28 26 30 27 23 23 20 20 22 20 20 18 17 20 21 21
91 91 92 82 90 96 86 76 74 64 67 58 59 57 54 43 39 35 29 27 30 37 44 39 44 40 35 32 31 32 24 23 28 24 22 29 20 16 16 16 13 13 16 20 21

GFSSW_sfc_rhum_345.txt.gz
RH
84 83 82 80 79 79 80 78 77 78 79 82 82 82 84 90 87 51 23 28 31 49 58 34 28 27 31 36 50 55 64 66 58 52 42 30 30 32 31 26 30 34 46 47 57
85 84 84 83 82 84 85 83 80 81 80 82 81 82 84 89 78 43 36 46 46 52 27 28 27 28 29 36 48 55 60 52 41 43 37 33 33 29 29 34 36 44 63 59 60
84 84 85 85 86 86 87 86 84 83 82 81 83 86 88 94 39 23 45 45 47 50 29 30 30 33 34 36 45 58 54 49 37 39 32 32 34 29 27 35 28 33 47 63 65
86 87 88 90 90 89 88 87 84 83 82 82 84 88 91 76 24 20 44 49 50 37 24 24 24 30 36 30 29 45 38 35 41 37 35 34 32 33 29 25 25 29 47 61 62
92 93 92 92 91 90 90 90 86 82 83 85 85 86 62 34 26 20 54 50 28 22 23 26 24 31 33 28 25 33 32 32 37 34 31 28 26 32 31 26 31 41 53 57 56
95 92 92 91 92 92 92 91 89 86 88 87 85 87 55 33 14 19 23 21 21 22 25 22 24 25 29 30 26 26 27 25 30 29 26 24 24 29 23 28 36 47 52 56 55
88 91 93 93 94 93 92 92 91 91 88 87 86 75 50 22 22 20 22 20 20 22 26 24 24 26 31 29 26 25 23 22 23 26 25 27 28 29 25 31 34 51 56 55 52
93 92 93 94 93 92 91 92 92 91 88 87 86 69 31 21 26 19 19 19 21 20 22 23 26 29 31 26 27 27 29 29 26 27 29 28 30 20 26 28 33 45 57 57 53
92 92 94 94 94 92 91 91 88 83 84 83 70 47 31 29 19 17 18 21 21 21 22 15 26 34 29 32 35 37 38 36 30 27 34 32 31 25 33 31 28 40 47 52 51
90 89 93 96 96 93 91 85 80 73 67 55 37 35 22 22 20 19 20 21 23 24 21 27 34 38 39 33 36 34 33 28 32 30 37 39 34 28 30 29 28 30 39 43 43
92 91 90 94 95 93 89 55 58 42 53 37 36 28 20 17 18 20 20 20 22 22 35 28 36 35 34 33 31 30 27 27 25 22 34 36 34 27 25 30 30 31 30 34 36
88 91 92 88 92 93 63 62 66 63 78 55 54 48 39 29 23 19 20 24 28 30 31 29 38 31 30 30 31 29 32 30 26 26 28 28 26 21 20 25 23 24 28 26 27
86 89 92 89 92 80 77 68 59 62 82 56 49 41 32 28 28 20 19 26 29 32 30 32 24 25 29 29 30 31 34 33 28 27 27 31 29 28 24 26 25 23 20 23 23
88 89 90 93 85 94 66 70 75 60 58 30 40 33 24 25 28 20 20 22 28 26 29 30 25 25 28 27 26 32 29 29 29 29 23 27 22 20 20 22 27 25 28 23 25
86 87 90 92 98 92 74 82 78 45 26 31 35 23 25 24 25 25 23 24 27 26 27 25 32 32 32 26 27 26 32 32 35 42 54 42 35 23 28 19 17 23 24 22 23
86 84 91 88 96 88 89 82 55 31 24 36 30 30 28 30 29 28 25 22 24 29 30 27 26 26 25 28 29 31 31 39 60 52 47 42 34 24 20 16 16 21 24 22 25
86 84 90 82 92 93 89 57 35 38 23 32 32 31 36 35 32 29 29 30 29 33 38 26 29 28 27 31 32 29 32 32 27 58 36 40 42 27 23 20 19 17 17 22 25
86 86 86 86 93 95 78 51 48 26 34 29 33 33 33 32 35 34 33 32 32 27 34 32 25 29 30 27 26 36 30 32 21 52 58 44 44 30 25 23 24 23 22 21 25
88 94 93 90 80 93 70 67 36 36 36 33 33 37 37 33 33 36 36 35 29 27 30 37 31 31 29 30 27 37 37 34 39 58 58 42 33 22 24 22 19 21 23 23 24
98 98 94 80 82 87 82 70 64 49 40 41 36 33 37 36 35 37 35 31 31 28 25 28 32 34 30 28 30 35 30 37 46 33 32 36 46 27 24 26 28 25 20 23 26
96 95 70 75 90 94 96 88 62 47 57 46 44 40 37 39 34 38 32 30 30 36 27 27 31 36 32 32 33 36 40 42 40 46 37 55 34 39 31 29 30 29 26 22 25
95 79 64 79 90 97 91 78 65 67 62 64 46 42 40 56 42 38 33 31 33 32 30 28 33 38 31 33 31 35 32 39 47 34 64 67 53 31 32 33 29 26 23 22 26
95 97 81 93 99 97 86 66 62 68 68 66 72 61 63 70 70 46 39 38 37 35 32 31 36 41 34 34 39 36 34 40 43 52 50 55 30 21 33 22 26 25 23 21 24
92 93 89 97 92 92 79 82 68 60 67 66 69 69 73 77 62 60 50 42 43 36 58 38 38 36 36 28 38 40 38 38 34 52 46 32 22 16 14 15 14 13 20 21 20
96 83 92 95 94 81 90 88 76 70 68 65 76 74 79 87 74 66 70 64 40 46 45 36 41 41 37 32 36 34 33 37 40 29 32 28 25 20 19 19 15 18 21 21 20
93 94 92 95 92 89 76 85 86 86 78 67 68 76 74 78 88 94 86 82 65 54 44 46 46 50 42 34 37 39 34 35 36 32 30 28 27 19 17 16 20 17 17 17 21
96 94 92 85 92 89 86 81 78 63 70 72 71 64 71 71 62 60 63 66 71 89 85 54 53 50 56 38 38 41 32 31 28 28 29 32 23 18 19 19 17 16 17 18 17

GFSSW_sfc_rhum_348.txt.gz
RH
85 85 84 84 84 84 84 84 83 83 83 83 81 80 82 89 88 60 26 28 36 52 52 31 29 28 32 38 54 57 67 72 62 54 47 34 31 32 32 28 33 37 43 56 74
87 87 87 87 88 90 90 88 86 84 84 84 83 82 83 88 86 47 40 47 49 53 26 30 27 28 30 40 51 58 67 56 46 45 42 34 32 31 30 33 35 43 64 72 77
91 90 90 90 92 92 92 92 89 87 84 83 84 85 87 94 34 24 50 51 51 42 31 32 30 33 34 36 48 62 56 49 41 41 38 34 36 31 28 35 29 33 42 74 82
92 93 92 92 92 92 92 92 90 88 86 85 86 88 90 80 19 21 53 53 54 36 24 24 25 30 37 33 29 50 43 42 42 39 38 36 33 35 30 26 27 27 47 71 76
94 83 91 93 92 92 92 92 90 88 88 88 88 86 70 34 24 22 56 45 24 23 24 26 26 32 34 32 25 38 32 33 37 39 34 31 29 34 34 28 33 41 62 66 67
92 92 92 93 93 92 92 92 90 90 91 89 87 87 64 32 15 21 24 21 22 22 25 23 25 26 30 33 28 28 26 25 25 32 28 26 26 30 28 29 35 48 59 68 63
92 90 90 93 95 94 93 91 92 92 90 89 87 77 55 22 26 23 22 22 21 23 25 25 26 25 32 30 28 27 26 24 23 28 27 28 27 29 24 32 36 48 57 66 62
86 84 87 91 94 95 92 91 91 90 89 88 88 70 36 20 31 22 21 21 22 22 23 24 27 30 33 29 28 30 30 28 23 29 29 27 30 23 27 31 29 43 56 60 62
86 87 87 88 90 91 91 87 86 83 82 82 70 58 34 29 21 19 20 21 23 22 23 18 27 36 31 33 32 37 41 38 30 30 36 33 32 27 35 32 31 35 48 57 59
84 88 90 90 88 88 88 82 76 75 66 61 39 38 22 22 21 20 23 22 24 25 22 29 36 39 41 32 36 43 32 32 32 26 39 39 35 28 30 31 29 32 37 48 50
84 87 88 90 88 90 84 58 67 54 62 54 44 31 25 27 20 20 22 22 24 23 34 32 36 37 34 36 34 35 32 30 27 24 38 36 38 29 25 35 33 33 34 34 39
80 85 86 87 87 91 71 71 78 71 88 62 57 55 46 39 31 20 22 25 29 30 33 30 37 33 32 33 36 32 35 31 29 28 34 32 28 21 20 29 29 26 28 29 33
78 83 84 85 91 88 84 85 70 70 88 61 53 48 36 32 32 24 21 27 31 38 36 32 25 28 28 32 32 33 38 34 31 28 29 32 23 18 21 30 27 27 22 25 25
82 85 82 90 88 97 75 84 90 72 55 31 42 36 28 32 34 22 23 24 30 31 33 33 27 27 32 31 26 36 30 31 30 31 28 28 24 21 18 21 24 28 29 25 29
85 85 85 90 100 97 84 93 88 45 28 33 39 26 27 26 26 26 25 26 29 29 29 25 33 34 34 28 27 28 35 37 38 45 56 42 36 24 24 14 14 16 26 27 26
84 83 85 82 94 92 95 88 54 27 26 39 32 33 31 31 29 27 26 24 27 30 32 29 28 30 28 31 31 32 33 37 65 53 38 38 35 24 18 14 19 17 19 23 27
84 84 86 84 82 92 95 50 36 34 25 33 35 34 37 38 35 30 31 37 32 41 41 27 29 30 30 33 34 31 33 33 21 49 29 43 46 28 22 24 24 21 20 21 26
85 86 83 88 95 97 70 44 54 29 34 31 35 36 38 35 38 37 35 34 34 28 35 32 26 32 32 30 30 38 32 32 18 43 58 52 45 30 30 26 27 28 28 28 24
88 97 93 90 79 91 58 55 40 40 45 46 33 40 38 36 36 40 40 37 32 27 31 36 31 32 31 33 31 38 37 32 36 64 59 44 32 21 25 25 29 31 32 27 26
98 96 92 82 88 83 74 64 61 55 51 46 43 38 42 38 41 44 40 34 34 30 28 29 31 35 32 30 34 42 32 37 47 32 27 31 42 29 24 31 28 23 27 27 27
94 89 67 80 93 94 94 91 72 51 63 66 52 48 43 52 43 43 37 33 34 39 32 31 32 34 34 34 35 39 44 46 42 44 32 44 28 35 37 34 31 28 25 24 26
93 74 56 80 94 97 94 87 72 71 64 66 64 52 55 67 59 42 38 35 35 35 34 33 35 40 31 36 35 38 36 40 48 37 65 59 52 33 38 34 33 25 24 23 26
96 95 75 89 96 94 72 77 67 67 74 71 77 73 72 80 80 70 46 43 46 34 35 34 38 45 34 36 43 38 36 42 46 52 53 54 33 20 28 24 22 20 19 22 22
94 89 89 96 91 95 86 71 84 66 74 72 74 74 83 85 77 74 73 60 72 50 55 45 41 40 41 32 39 42 39 41 38 54 38 34 23 18 17 18 16 17 19 16 20
96 84 94 94 93 78 69 81 69 73 67 60 72 72 80 88 89 91 83 81 74 76 65 47 48 47 40 37 40 37 34 40 44 33 35 30 29 24 22 23 21 19 18 18 18
94 93 92 95 90 86 72 78 77 82 75 76 77 67 63 80 87 90 71 74 79 86 87 86 62 54 51 38 38 42 40 40 41 35 35 34 30 21 19 19 20 21 23 22 20
97 95 93 85 92 89 83 75 77 60 64 75 70 66 64 63 68 53 50 52 58 67 79 86 69 63 72 52 52 49 39 38 35 36 34 36 26 21 23 24 22 22 24 23 20